<?xml version="1.0" encoding="UTF-8"?>
<gpx
version="1.1"
creator="Kashmir3D 9.350 - http://www.kashmir3d.com"
xmlns:xsi="http://www.w3.org/2001/XMLSchema-instance"
xmlns="http://www.topografix.com/GPX/1/1"
xmlns:kashmir3d="http://www.kashmir3d.com/namespace/kashmir3d"
xsi:schemaLocation="http://www.topografix.com/GPX/1/1 http://www.topografix.com/GPX/1/1/gpx.xsd
	http://www.kashmir3d.com/namespace/kashmir3d http://www.kashmir3d.com/namespace/kashmir3d.xsd">
<trk>
 <name>ONIGAJOU.KML(鬼ヶ城)</name>
 <number>1</number>
 <extensions>
 <kashmir3d:line_color>0000ff</kashmir3d:line_color>
 <kashmir3d:line_size>3</kashmir3d:line_size>
 <kashmir3d:line_style>1</kashmir3d:line_style>
 <kashmir3d:icon>901001</kashmir3d:icon>
 </extensions>
<trkseg>
<trkpt lat="35.345813" lon="135.154020">
 <ele>136</ele>
 <time>2020-03-25T02:53:53Z</time>
</trkpt>
<trkpt lat="35.345728" lon="135.153966">
 <ele>136</ele>
 <time>2020-03-25T02:53:53Z</time>
</trkpt>
<trkpt lat="35.345547" lon="135.153859">
 <ele>138</ele>
 <time>2020-03-25T02:53:53Z</time>
</trkpt>
<trkpt lat="35.345402" lon="135.153784">
 <ele>139</ele>
 <time>2020-03-25T02:53:54Z</time>
</trkpt>
<trkpt lat="35.345196" lon="135.153698">
 <ele>143</ele>
 <time>2020-03-25T02:53:54Z</time>
</trkpt>
<trkpt lat="35.345058" lon="135.153526">
 <ele>146</ele>
 <time>2020-03-25T02:53:54Z</time>
</trkpt>
<trkpt lat="35.344887" lon="135.153354">
 <ele>149</ele>
 <time>2020-03-25T02:53:54Z</time>
</trkpt>
<trkpt lat="35.344792" lon="135.153236">
 <ele>152</ele>
 <time>2020-03-25T02:53:54Z</time>
</trkpt>
<trkpt lat="35.344698" lon="135.153161">
 <ele>154</ele>
 <time>2020-03-25T02:53:54Z</time>
</trkpt>
<trkpt lat="35.344629" lon="135.153054">
 <ele>156</ele>
 <time>2020-03-25T02:53:54Z</time>
</trkpt>
<trkpt lat="35.344517" lon="135.152990">
 <ele>159</ele>
 <time>2020-03-25T02:53:55Z</time>
</trkpt>
<trkpt lat="35.344363" lon="135.152850">
 <ele>161</ele>
 <time>2020-03-25T02:53:55Z</time>
</trkpt>
<trkpt lat="35.344277" lon="135.152807">
 <ele>163</ele>
 <time>2020-03-25T02:53:55Z</time>
</trkpt>
<trkpt lat="35.344166" lon="135.152839">
 <ele>166</ele>
 <time>2020-03-25T02:53:55Z</time>
</trkpt>
<trkpt lat="35.344123" lon="135.152872">
 <ele>168</ele>
 <time>2020-03-25T02:53:55Z</time>
</trkpt>
<trkpt lat="35.344140" lon="135.152990">
 <ele>168</ele>
 <time>2020-03-25T02:53:55Z</time>
</trkpt>
<trkpt lat="35.344140" lon="135.153097">
 <ele>169</ele>
 <time>2020-03-25T02:53:56Z</time>
</trkpt>
<trkpt lat="35.344071" lon="135.153097">
 <ele>171</ele>
 <time>2020-03-25T02:53:56Z</time>
</trkpt>
<trkpt lat="35.343977" lon="135.153054">
 <ele>173</ele>
 <time>2020-03-25T02:53:56Z</time>
</trkpt>
<trkpt lat="35.343891" lon="135.153000">
 <ele>176</ele>
 <time>2020-03-25T02:53:56Z</time>
</trkpt>
<trkpt lat="35.343822" lon="135.152893">
 <ele>178</ele>
 <time>2020-03-25T02:53:56Z</time>
</trkpt>
<trkpt lat="35.343771" lon="135.152818">
 <ele>176</ele>
 <time>2020-03-25T02:53:56Z</time>
</trkpt>
<trkpt lat="35.343693" lon="135.152764">
 <ele>180</ele>
 <time>2020-03-25T02:53:56Z</time>
</trkpt>
<trkpt lat="35.343642" lon="135.152721">
 <ele>180</ele>
 <time>2020-03-25T02:53:57Z</time>
</trkpt>
<trkpt lat="35.343556" lon="135.152700">
 <ele>182</ele>
 <time>2020-03-25T02:53:57Z</time>
</trkpt>
<trkpt lat="35.343470" lon="135.152775">
 <ele>187</ele>
 <time>2020-03-25T02:53:57Z</time>
</trkpt>
<trkpt lat="35.343359" lon="135.152807">
 <ele>191</ele>
 <time>2020-03-25T02:53:57Z</time>
</trkpt>
<trkpt lat="35.343324" lon="135.152689">
 <ele>188</ele>
 <time>2020-03-25T02:53:57Z</time>
</trkpt>
<trkpt lat="35.343281" lon="135.152636">
 <ele>188</ele>
 <time>2020-03-25T02:53:57Z</time>
</trkpt>
<trkpt lat="35.343187" lon="135.152636">
 <ele>191</ele>
 <time>2020-03-25T02:53:57Z</time>
</trkpt>
<trkpt lat="35.343067" lon="135.152646">
 <ele>192</ele>
 <time>2020-03-25T02:53:58Z</time>
</trkpt>
<trkpt lat="35.342895" lon="135.152689">
 <ele>196</ele>
 <time>2020-03-25T02:53:58Z</time>
</trkpt>
<trkpt lat="35.342767" lon="135.152646">
 <ele>199</ele>
 <time>2020-03-25T02:53:58Z</time>
</trkpt>
<trkpt lat="35.342552" lon="135.152550">
 <ele>203</ele>
 <time>2020-03-25T02:53:58Z</time>
</trkpt>
<trkpt lat="35.342458" lon="135.152475">
 <ele>205</ele>
 <time>2020-03-25T02:53:58Z</time>
</trkpt>
<trkpt lat="35.342415" lon="135.152367">
 <ele>206</ele>
 <time>2020-03-25T02:53:58Z</time>
</trkpt>
<trkpt lat="35.342380" lon="135.152292">
 <ele>207</ele>
 <time>2020-03-25T02:53:59Z</time>
</trkpt>
<trkpt lat="35.342320" lon="135.152206">
 <ele>210</ele>
 <time>2020-03-25T02:53:59Z</time>
</trkpt>
<trkpt lat="35.342269" lon="135.152110">
 <ele>214</ele>
 <time>2020-03-25T02:53:59Z</time>
</trkpt>
<trkpt lat="35.342226" lon="135.152056">
 <ele>221</ele>
 <time>2020-03-25T02:53:59Z</time>
</trkpt>
<trkpt lat="35.342200" lon="135.151938">
 <ele>223</ele>
 <time>2020-03-25T02:53:59Z</time>
</trkpt>
<trkpt lat="35.342157" lon="135.151831">
 <ele>229</ele>
 <time>2020-03-25T02:53:59Z</time>
</trkpt>
<trkpt lat="35.342106" lon="135.151799">
 <ele>228</ele>
 <time>2020-03-25T02:53:59Z</time>
</trkpt>
<trkpt lat="35.342046" lon="135.151724">
 <ele>230</ele>
 <time>2020-03-25T02:54:00Z</time>
</trkpt>
<trkpt lat="35.341943" lon="135.151616">
 <ele>232</ele>
 <time>2020-03-25T02:54:00Z</time>
</trkpt>
<trkpt lat="35.341882" lon="135.151573">
 <ele>236</ele>
 <time>2020-03-25T02:54:00Z</time>
</trkpt>
<trkpt lat="35.341848" lon="135.151455">
 <ele>237</ele>
 <time>2020-03-25T02:54:00Z</time>
</trkpt>
<trkpt lat="35.341814" lon="135.151359">
 <ele>240</ele>
 <time>2020-03-25T02:54:00Z</time>
</trkpt>
<trkpt lat="35.341762" lon="135.151294">
 <ele>243</ele>
 <time>2020-03-25T02:54:00Z</time>
</trkpt>
<trkpt lat="35.341702" lon="135.151284">
 <ele>243</ele>
 <time>2020-03-25T02:54:00Z</time>
</trkpt>
<trkpt lat="35.341642" lon="135.151230">
 <ele>249</ele>
 <time>2020-03-25T02:54:01Z</time>
</trkpt>
<trkpt lat="35.341582" lon="135.151166">
 <ele>250</ele>
 <time>2020-03-25T02:54:01Z</time>
</trkpt>
<trkpt lat="35.341513" lon="135.151123">
 <ele>255</ele>
 <time>2020-03-25T02:54:01Z</time>
</trkpt>
<trkpt lat="35.341470" lon="135.151058">
 <ele>259</ele>
 <time>2020-03-25T02:54:01Z</time>
</trkpt>
<trkpt lat="35.341428" lon="135.150994">
 <ele>258</ele>
 <time>2020-03-25T02:54:01Z</time>
</trkpt>
<trkpt lat="35.341282" lon="135.150897">
 <ele>260</ele>
 <time>2020-03-25T02:54:01Z</time>
</trkpt>
<trkpt lat="35.341179" lon="135.150779">
 <ele>267</ele>
 <time>2020-03-25T02:54:02Z</time>
</trkpt>
<trkpt lat="35.341076" lon="135.150651">
 <ele>262</ele>
 <time>2020-03-25T02:54:02Z</time>
</trkpt>
<trkpt lat="35.340990" lon="135.150533">
 <ele>265</ele>
 <time>2020-03-25T02:54:02Z</time>
</trkpt>
<trkpt lat="35.340921" lon="135.150350">
 <ele>268</ele>
 <time>2020-03-25T02:54:02Z</time>
</trkpt>
<trkpt lat="35.340852" lon="135.150222">
 <ele>269</ele>
 <time>2020-03-25T02:54:02Z</time>
</trkpt>
<trkpt lat="35.340784" lon="135.150082">
 <ele>275</ele>
 <time>2020-03-25T02:54:02Z</time>
</trkpt>
<trkpt lat="35.340715" lon="135.149975">
 <ele>278</ele>
 <time>2020-03-25T02:54:02Z</time>
</trkpt>
<trkpt lat="35.340655" lon="135.149835">
 <ele>284</ele>
 <time>2020-03-25T02:54:03Z</time>
</trkpt>
<trkpt lat="35.340569" lon="135.149760">
 <ele>287</ele>
 <time>2020-03-25T02:54:03Z</time>
</trkpt>
<trkpt lat="35.340492" lon="135.149664">
 <ele>290</ele>
 <time>2020-03-25T02:54:03Z</time>
</trkpt>
<trkpt lat="35.340483" lon="135.149567">
 <ele>294</ele>
 <time>2020-03-25T02:54:03Z</time>
</trkpt>
<trkpt lat="35.340458" lon="135.149438">
 <ele>297</ele>
 <time>2020-03-25T02:54:03Z</time>
</trkpt>
<trkpt lat="35.340432" lon="135.149374">
 <ele>301</ele>
 <time>2020-03-25T02:54:03Z</time>
</trkpt>
<trkpt lat="35.340363" lon="135.149234">
 <ele>308</ele>
 <time>2020-03-25T02:54:03Z</time>
</trkpt>
<trkpt lat="35.340303" lon="135.149095">
 <ele>311</ele>
 <time>2020-03-25T02:54:04Z</time>
</trkpt>
<trkpt lat="35.340209" lon="135.148977">
 <ele>319</ele>
 <time>2020-03-25T02:54:04Z</time>
</trkpt>
<trkpt lat="35.340123" lon="135.148816">
 <ele>318</ele>
 <time>2020-03-25T02:54:04Z</time>
</trkpt>
<trkpt lat="35.340063" lon="135.148559">
 <ele>329</ele>
 <time>2020-03-25T02:54:04Z</time>
</trkpt>
<trkpt lat="35.340054" lon="135.148430">
 <ele>329</ele>
 <time>2020-03-25T02:54:04Z</time>
</trkpt>
<trkpt lat="35.340037" lon="135.148312">
 <ele>334</ele>
 <time>2020-03-25T02:54:04Z</time>
</trkpt>
<trkpt lat="35.339994" lon="135.148247">
 <ele>334</ele>
 <time>2020-03-25T02:54:04Z</time>
</trkpt>
<trkpt lat="35.339994" lon="135.148151">
 <ele>337</ele>
 <time>2020-03-25T02:54:05Z</time>
</trkpt>
<trkpt lat="35.339951" lon="135.148097">
 <ele>338</ele>
 <time>2020-03-25T02:54:05Z</time>
</trkpt>
<trkpt lat="35.339994" lon="135.147979">
 <ele>343</ele>
 <time>2020-03-25T02:54:05Z</time>
</trkpt>
<trkpt lat="35.340054" lon="135.147818">
 <ele>351</ele>
 <time>2020-03-25T02:54:05Z</time>
</trkpt>
<trkpt lat="35.340097" lon="135.147647">
 <ele>362</ele>
 <time>2020-03-25T02:54:05Z</time>
</trkpt>
<trkpt lat="35.340192" lon="135.147421">
 <ele>375</ele>
 <time>2020-03-25T02:54:05Z</time>
</trkpt>
<trkpt lat="35.340243" lon="135.147260">
 <ele>383</ele>
 <time>2020-03-25T02:54:06Z</time>
</trkpt>
<trkpt lat="35.340312" lon="135.147057">
 <ele>390</ele>
 <time>2020-03-25T02:54:06Z</time>
</trkpt>
<trkpt lat="35.340372" lon="135.146917">
 <ele>396</ele>
 <time>2020-03-25T02:54:06Z</time>
</trkpt>
<trkpt lat="35.340398" lon="135.146778">
 <ele>397</ele>
 <time>2020-03-25T02:54:06Z</time>
</trkpt>
<trkpt lat="35.340398" lon="135.146681">
 <ele>399</ele>
 <time>2020-03-25T02:54:06Z</time>
</trkpt>
<trkpt lat="35.340355" lon="135.146617">
 <ele>399</ele>
 <time>2020-03-25T02:54:06Z</time>
</trkpt>
<trkpt lat="35.340320" lon="135.146542">
 <ele>398</ele>
 <time>2020-03-25T02:54:06Z</time>
</trkpt>
<trkpt lat="35.340320" lon="135.146381">
 <ele>404</ele>
 <time>2020-03-25T02:54:07Z</time>
</trkpt>
<trkpt lat="35.340320" lon="135.146230">
 <ele>414</ele>
 <time>2020-03-25T02:54:07Z</time>
</trkpt>
<trkpt lat="35.340320" lon="135.146123">
 <ele>419</ele>
 <time>2020-03-25T02:54:07Z</time>
</trkpt>
<trkpt lat="35.340398" lon="135.145994">
 <ele>416</ele>
 <time>2020-03-25T02:54:07Z</time>
</trkpt>
<trkpt lat="35.340449" lon="135.145898">
 <ele>411</ele>
 <time>2020-03-25T02:54:07Z</time>
</trkpt>
<trkpt lat="35.340449" lon="135.145844">
 <ele>411</ele>
 <time>2020-03-25T02:54:07Z</time>
</trkpt>
<trkpt lat="35.340329" lon="135.145823">
 <ele>407</ele>
 <time>2020-03-25T02:54:07Z</time>
</trkpt>
<trkpt lat="35.340217" lon="135.145780">
 <ele>408</ele>
 <time>2020-03-25T02:54:08Z</time>
</trkpt>
<trkpt lat="35.340114" lon="135.145662">
 <ele>410</ele>
 <time>2020-03-25T02:54:08Z</time>
</trkpt>
<trkpt lat="35.340037" lon="135.145512">
 <ele>411</ele>
 <time>2020-03-25T02:54:08Z</time>
</trkpt>
<trkpt lat="35.339968" lon="135.145394">
 <ele>414</ele>
 <time>2020-03-25T02:54:08Z</time>
</trkpt>
<trkpt lat="35.339908" lon="135.145265">
 <ele>418</ele>
 <time>2020-03-25T02:54:08Z</time>
</trkpt>
<trkpt lat="35.339831" lon="135.145147">
 <ele>423</ele>
 <time>2020-03-25T02:54:08Z</time>
</trkpt>
<trkpt lat="35.339814" lon="135.145082">
 <ele>423</ele>
 <time>2020-03-25T02:54:08Z</time>
</trkpt>
<trkpt lat="35.339737" lon="135.144964">
 <ele>425</ele>
 <time>2020-03-25T02:54:09Z</time>
</trkpt>
<trkpt lat="35.339677" lon="135.144761">
 <ele>430</ele>
 <time>2020-03-25T02:54:09Z</time>
</trkpt>
<trkpt lat="35.339642" lon="135.144632">
 <ele>430</ele>
 <time>2020-03-25T02:54:09Z</time>
</trkpt>
<trkpt lat="35.339582" lon="135.144514">
 <ele>433</ele>
 <time>2020-03-25T02:54:09Z</time>
</trkpt>
<trkpt lat="35.339496" lon="135.144224">
 <ele>434</ele>
 <time>2020-03-25T02:54:09Z</time>
</trkpt>
<trkpt lat="35.339393" lon="135.143945">
 <ele>440</ele>
 <time>2020-03-25T02:54:09Z</time>
</trkpt>
<trkpt lat="35.339290" lon="135.143741">
 <ele>444</ele>
 <time>2020-03-25T02:54:10Z</time>
</trkpt>
<trkpt lat="35.339196" lon="135.143634">
 <ele>451</ele>
 <time>2020-03-25T02:54:10Z</time>
</trkpt>
<trkpt lat="35.339102" lon="135.143495">
 <ele>450</ele>
 <time>2020-03-25T02:54:10Z</time>
</trkpt>
<trkpt lat="35.339024" lon="135.143409">
 <ele>452</ele>
 <time>2020-03-25T02:54:10Z</time>
</trkpt>
<trkpt lat="35.339059" lon="135.143269">
 <ele>452</ele>
 <time>2020-03-25T02:54:10Z</time>
</trkpt>
<trkpt lat="35.339153" lon="135.143205">
 <ele>453</ele>
 <time>2020-03-25T02:54:10Z</time>
</trkpt>
<trkpt lat="35.339230" lon="135.143130">
 <ele>456</ele>
 <time>2020-03-25T02:54:10Z</time>
</trkpt>
<trkpt lat="35.339316" lon="135.143098">
 <ele>457</ele>
 <time>2020-03-25T02:54:11Z</time>
</trkpt>
<trkpt lat="35.339393" lon="135.143022">
 <ele>460</ele>
 <time>2020-03-25T02:54:11Z</time>
</trkpt>
<trkpt lat="35.339462" lon="135.142937">
 <ele>462</ele>
 <time>2020-03-25T02:54:11Z</time>
</trkpt>
<trkpt lat="35.339574" lon="135.142926">
 <ele>463</ele>
 <time>2020-03-25T02:54:11Z</time>
</trkpt>
<trkpt lat="35.339668" lon="135.142958">
 <ele>464</ele>
 <time>2020-03-25T02:54:11Z</time>
</trkpt>
<trkpt lat="35.339780" lon="135.142980">
 <ele>466</ele>
 <time>2020-03-25T02:54:11Z</time>
</trkpt>
<trkpt lat="35.339857" lon="135.142980">
 <ele>467</ele>
 <time>2020-03-25T02:54:11Z</time>
</trkpt>
<trkpt lat="35.339994" lon="135.143055">
 <ele>469</ele>
 <time>2020-03-25T02:54:12Z</time>
</trkpt>
<trkpt lat="35.340097" lon="135.143076">
 <ele>470</ele>
 <time>2020-03-25T02:54:12Z</time>
</trkpt>
<trkpt lat="35.340243" lon="135.143087">
 <ele>468</ele>
 <time>2020-03-25T02:54:12Z</time>
</trkpt>
<trkpt lat="35.340372" lon="135.143140">
 <ele>472</ele>
 <time>2020-03-25T02:54:12Z</time>
</trkpt>
<trkpt lat="35.340440" lon="135.143162">
 <ele>476</ele>
 <time>2020-03-25T02:54:12Z</time>
</trkpt>
<trkpt lat="35.340492" lon="135.143205">
 <ele>479</ele>
 <time>2020-03-25T02:54:12Z</time>
</trkpt>
<trkpt lat="35.340543" lon="135.143280">
 <ele>478</ele>
 <time>2020-03-25T02:54:12Z</time>
</trkpt>
<trkpt lat="35.340578" lon="135.143323">
 <ele>483</ele>
 <time>2020-03-25T02:54:13Z</time>
</trkpt>
<trkpt lat="35.340621" lon="135.143269">
 <ele>488</ele>
 <time>2020-03-25T02:54:13Z</time>
</trkpt>
<trkpt lat="35.340707" lon="135.143183">
 <ele>493</ele>
 <time>2020-03-25T02:54:13Z</time>
</trkpt>
<trkpt lat="35.340758" lon="135.143044">
 <ele>498</ele>
 <time>2020-03-25T02:54:13Z</time>
</trkpt>
<trkpt lat="35.340835" lon="135.143044">
 <ele>502</ele>
 <time>2020-03-25T02:54:13Z</time>
</trkpt>
<trkpt lat="35.340913" lon="135.143098">
 <ele>504</ele>
 <time>2020-03-25T02:54:13Z</time>
</trkpt>
<trkpt lat="35.340990" lon="135.143087">
 <ele>505</ele>
 <time>2020-03-25T02:54:14Z</time>
</trkpt>
<trkpt lat="35.341050" lon="135.143076">
 <ele>509</ele>
 <time>2020-03-25T02:54:14Z</time>
</trkpt>
<trkpt lat="35.341050" lon="135.143012">
 <ele>509</ele>
 <time>2020-03-25T02:54:14Z</time>
</trkpt>
<trkpt lat="35.341110" lon="135.142958">
 <ele>515</ele>
 <time>2020-03-25T02:54:14Z</time>
</trkpt>
<trkpt lat="35.341213" lon="135.142872">
 <ele>521</ele>
 <time>2020-03-25T02:54:14Z</time>
</trkpt>
<trkpt lat="35.341239" lon="135.142808">
 <ele>525</ele>
 <time>2020-03-25T02:54:14Z</time>
</trkpt>
<trkpt lat="35.341273" lon="135.142733">
 <ele>531</ele>
 <time>2020-03-25T02:54:14Z</time>
</trkpt>
<trkpt lat="35.341325" lon="135.142679">
 <ele>533</ele>
 <time>2020-03-25T02:54:15Z</time>
</trkpt>
<trkpt lat="35.341367" lon="135.142626">
 <ele>536</ele>
 <time>2020-03-25T02:54:15Z</time>
</trkpt>
<trkpt lat="35.341419" lon="135.142583">
 <ele>538</ele>
 <time>2020-03-25T02:54:15Z</time>
</trkpt>
<trkpt lat="35.341522" lon="135.142314">
 <ele>540</ele>
 <time>2020-03-25T02:54:15Z</time>
</trkpt>
<trkpt lat="35.341419" lon="135.142583">
 <ele>538</ele>
 <time>2020-03-25T02:54:15Z</time>
</trkpt>
<trkpt lat="35.341367" lon="135.142626">
 <ele>536</ele>
 <time>2020-03-25T02:54:15Z</time>
</trkpt>
<trkpt lat="35.341325" lon="135.142679">
 <ele>533</ele>
 <time>2020-03-25T02:54:16Z</time>
</trkpt>
<trkpt lat="35.341273" lon="135.142733">
 <ele>531</ele>
 <time>2020-03-25T02:54:16Z</time>
</trkpt>
<trkpt lat="35.341239" lon="135.142808">
 <ele>525</ele>
 <time>2020-03-25T02:54:16Z</time>
</trkpt>
<trkpt lat="35.341213" lon="135.142872">
 <ele>521</ele>
 <time>2020-03-25T02:54:16Z</time>
</trkpt>
<trkpt lat="35.341110" lon="135.142958">
 <ele>515</ele>
 <time>2020-03-25T02:54:16Z</time>
</trkpt>
<trkpt lat="35.341050" lon="135.143012">
 <ele>509</ele>
 <time>2020-03-25T02:54:16Z</time>
</trkpt>
<trkpt lat="35.341050" lon="135.143076">
 <ele>509</ele>
 <time>2020-03-25T02:54:16Z</time>
</trkpt>
<trkpt lat="35.340990" lon="135.143087">
 <ele>505</ele>
 <time>2020-03-25T02:54:17Z</time>
</trkpt>
<trkpt lat="35.340913" lon="135.143098">
 <ele>504</ele>
 <time>2020-03-25T02:54:17Z</time>
</trkpt>
<trkpt lat="35.340835" lon="135.143044">
 <ele>502</ele>
 <time>2020-03-25T02:54:17Z</time>
</trkpt>
<trkpt lat="35.340758" lon="135.143044">
 <ele>498</ele>
 <time>2020-03-25T02:54:17Z</time>
</trkpt>
<trkpt lat="35.340707" lon="135.143183">
 <ele>493</ele>
 <time>2020-03-25T02:54:17Z</time>
</trkpt>
<trkpt lat="35.340621" lon="135.143269">
 <ele>488</ele>
 <time>2020-03-25T02:54:17Z</time>
</trkpt>
<trkpt lat="35.340578" lon="135.143323">
 <ele>483</ele>
 <time>2020-03-25T02:54:18Z</time>
</trkpt>
<trkpt lat="35.340543" lon="135.143280">
 <ele>478</ele>
 <time>2020-03-25T02:54:18Z</time>
</trkpt>
<trkpt lat="35.340492" lon="135.143205">
 <ele>479</ele>
 <time>2020-03-25T02:54:18Z</time>
</trkpt>
<trkpt lat="35.340440" lon="135.143162">
 <ele>476</ele>
 <time>2020-03-25T02:54:18Z</time>
</trkpt>
<trkpt lat="35.340372" lon="135.143140">
 <ele>472</ele>
 <time>2020-03-25T02:54:18Z</time>
</trkpt>
<trkpt lat="35.340243" lon="135.143087">
 <ele>468</ele>
 <time>2020-03-25T02:54:18Z</time>
</trkpt>
<trkpt lat="35.340097" lon="135.143076">
 <ele>470</ele>
 <time>2020-03-25T02:54:18Z</time>
</trkpt>
<trkpt lat="35.339994" lon="135.143055">
 <ele>469</ele>
 <time>2020-03-25T02:54:19Z</time>
</trkpt>
<trkpt lat="35.339857" lon="135.142980">
 <ele>467</ele>
 <time>2020-03-25T02:54:19Z</time>
</trkpt>
<trkpt lat="35.339780" lon="135.142980">
 <ele>466</ele>
 <time>2020-03-25T02:54:19Z</time>
</trkpt>
<trkpt lat="35.339668" lon="135.142958">
 <ele>464</ele>
 <time>2020-03-25T02:54:19Z</time>
</trkpt>
<trkpt lat="35.339574" lon="135.142926">
 <ele>463</ele>
 <time>2020-03-25T02:54:19Z</time>
</trkpt>
<trkpt lat="35.339462" lon="135.142937">
 <ele>462</ele>
 <time>2020-03-25T02:54:19Z</time>
</trkpt>
<trkpt lat="35.339393" lon="135.143022">
 <ele>460</ele>
 <time>2020-03-25T02:54:19Z</time>
</trkpt>
<trkpt lat="35.339316" lon="135.143098">
 <ele>457</ele>
 <time>2020-03-25T02:54:20Z</time>
</trkpt>
<trkpt lat="35.339230" lon="135.143130">
 <ele>456</ele>
 <time>2020-03-25T02:54:20Z</time>
</trkpt>
<trkpt lat="35.339153" lon="135.143205">
 <ele>453</ele>
 <time>2020-03-25T02:54:20Z</time>
</trkpt>
<trkpt lat="35.339059" lon="135.143269">
 <ele>452</ele>
 <time>2020-03-25T02:54:20Z</time>
</trkpt>
<trkpt lat="35.339024" lon="135.143409">
 <ele>452</ele>
 <time>2020-03-25T02:54:20Z</time>
</trkpt>
<trkpt lat="35.339102" lon="135.143495">
 <ele>450</ele>
 <time>2020-03-25T02:54:20Z</time>
</trkpt>
<trkpt lat="35.339196" lon="135.143634">
 <ele>451</ele>
 <time>2020-03-25T02:54:21Z</time>
</trkpt>
<trkpt lat="35.339290" lon="135.143741">
 <ele>444</ele>
 <time>2020-03-25T02:54:21Z</time>
</trkpt>
<trkpt lat="35.339393" lon="135.143945">
 <ele>440</ele>
 <time>2020-03-25T02:54:21Z</time>
</trkpt>
<trkpt lat="35.339496" lon="135.144224">
 <ele>434</ele>
 <time>2020-03-25T02:54:21Z</time>
</trkpt>
<trkpt lat="35.339582" lon="135.144514">
 <ele>433</ele>
 <time>2020-03-25T02:54:21Z</time>
</trkpt>
<trkpt lat="35.339642" lon="135.144632">
 <ele>430</ele>
 <time>2020-03-25T02:54:21Z</time>
</trkpt>
<trkpt lat="35.339677" lon="135.144761">
 <ele>430</ele>
 <time>2020-03-25T02:54:21Z</time>
</trkpt>
<trkpt lat="35.339737" lon="135.144964">
 <ele>425</ele>
 <time>2020-03-25T02:54:22Z</time>
</trkpt>
<trkpt lat="35.339814" lon="135.145082">
 <ele>423</ele>
 <time>2020-03-25T02:54:22Z</time>
</trkpt>
<trkpt lat="35.339831" lon="135.145147">
 <ele>423</ele>
 <time>2020-03-25T02:54:22Z</time>
</trkpt>
<trkpt lat="35.339908" lon="135.145265">
 <ele>418</ele>
 <time>2020-03-25T02:54:22Z</time>
</trkpt>
<trkpt lat="35.339968" lon="135.145394">
 <ele>414</ele>
 <time>2020-03-25T02:54:22Z</time>
</trkpt>
<trkpt lat="35.340037" lon="135.145512">
 <ele>411</ele>
 <time>2020-03-25T02:54:22Z</time>
</trkpt>
<trkpt lat="35.340114" lon="135.145662">
 <ele>410</ele>
 <time>2020-03-25T02:54:23Z</time>
</trkpt>
<trkpt lat="35.340217" lon="135.145780">
 <ele>408</ele>
 <time>2020-03-25T02:54:23Z</time>
</trkpt>
<trkpt lat="35.340329" lon="135.145823">
 <ele>407</ele>
 <time>2020-03-25T02:54:23Z</time>
</trkpt>
<trkpt lat="35.340449" lon="135.145844">
 <ele>411</ele>
 <time>2020-03-25T02:54:23Z</time>
</trkpt>
<trkpt lat="35.340449" lon="135.145898">
 <ele>411</ele>
 <time>2020-03-25T02:54:23Z</time>
</trkpt>
<trkpt lat="35.340398" lon="135.145994">
 <ele>416</ele>
 <time>2020-03-25T02:54:23Z</time>
</trkpt>
<trkpt lat="35.340320" lon="135.146123">
 <ele>419</ele>
 <time>2020-03-25T02:54:23Z</time>
</trkpt>
<trkpt lat="35.340320" lon="135.146230">
 <ele>414</ele>
 <time>2020-03-25T02:54:24Z</time>
</trkpt>
<trkpt lat="35.340320" lon="135.146381">
 <ele>404</ele>
 <time>2020-03-25T02:54:24Z</time>
</trkpt>
<trkpt lat="35.340320" lon="135.146542">
 <ele>398</ele>
 <time>2020-03-25T02:54:24Z</time>
</trkpt>
<trkpt lat="35.340355" lon="135.146617">
 <ele>399</ele>
 <time>2020-03-25T02:54:24Z</time>
</trkpt>
<trkpt lat="35.340398" lon="135.146681">
 <ele>399</ele>
 <time>2020-03-25T02:54:24Z</time>
</trkpt>
<trkpt lat="35.340398" lon="135.146778">
 <ele>397</ele>
 <time>2020-03-25T02:54:24Z</time>
</trkpt>
<trkpt lat="35.340372" lon="135.146917">
 <ele>396</ele>
 <time>2020-03-25T02:54:24Z</time>
</trkpt>
<trkpt lat="35.340312" lon="135.147057">
 <ele>390</ele>
 <time>2020-03-25T02:54:25Z</time>
</trkpt>
<trkpt lat="35.340243" lon="135.147260">
 <ele>383</ele>
 <time>2020-03-25T02:54:25Z</time>
</trkpt>
<trkpt lat="35.340192" lon="135.147421">
 <ele>375</ele>
 <time>2020-03-25T02:54:25Z</time>
</trkpt>
<trkpt lat="35.340097" lon="135.147647">
 <ele>362</ele>
 <time>2020-03-25T02:54:25Z</time>
</trkpt>
<trkpt lat="35.340054" lon="135.147818">
 <ele>351</ele>
 <time>2020-03-25T02:54:25Z</time>
</trkpt>
<trkpt lat="35.339994" lon="135.147979">
 <ele>343</ele>
 <time>2020-03-25T02:54:25Z</time>
</trkpt>
<trkpt lat="35.339951" lon="135.148097">
 <ele>338</ele>
 <time>2020-03-25T02:54:26Z</time>
</trkpt>
<trkpt lat="35.339994" lon="135.148151">
 <ele>337</ele>
 <time>2020-03-25T02:54:26Z</time>
</trkpt>
<trkpt lat="35.339994" lon="135.148247">
 <ele>334</ele>
 <time>2020-03-25T02:54:26Z</time>
</trkpt>
<trkpt lat="35.340037" lon="135.148312">
 <ele>334</ele>
 <time>2020-03-25T02:54:26Z</time>
</trkpt>
<trkpt lat="35.340054" lon="135.148430">
 <ele>329</ele>
 <time>2020-03-25T02:54:26Z</time>
</trkpt>
<trkpt lat="35.340063" lon="135.148559">
 <ele>329</ele>
 <time>2020-03-25T02:54:26Z</time>
</trkpt>
<trkpt lat="35.340123" lon="135.148816">
 <ele>318</ele>
 <time>2020-03-25T02:54:26Z</time>
</trkpt>
<trkpt lat="35.340209" lon="135.148977">
 <ele>319</ele>
 <time>2020-03-25T02:54:27Z</time>
</trkpt>
<trkpt lat="35.340303" lon="135.149095">
 <ele>311</ele>
 <time>2020-03-25T02:54:27Z</time>
</trkpt>
<trkpt lat="35.340363" lon="135.149234">
 <ele>308</ele>
 <time>2020-03-25T02:54:27Z</time>
</trkpt>
<trkpt lat="35.340432" lon="135.149374">
 <ele>301</ele>
 <time>2020-03-25T02:54:27Z</time>
</trkpt>
<trkpt lat="35.340458" lon="135.149438">
 <ele>297</ele>
 <time>2020-03-25T02:54:27Z</time>
</trkpt>
<trkpt lat="35.340483" lon="135.149567">
 <ele>294</ele>
 <time>2020-03-25T02:54:27Z</time>
</trkpt>
<trkpt lat="35.340492" lon="135.149664">
 <ele>290</ele>
 <time>2020-03-25T02:54:28Z</time>
</trkpt>
<trkpt lat="35.340569" lon="135.149760">
 <ele>287</ele>
 <time>2020-03-25T02:54:28Z</time>
</trkpt>
<trkpt lat="35.340655" lon="135.149835">
 <ele>284</ele>
 <time>2020-03-25T02:54:28Z</time>
</trkpt>
<trkpt lat="35.340715" lon="135.149975">
 <ele>278</ele>
 <time>2020-03-25T02:54:28Z</time>
</trkpt>
<trkpt lat="35.340784" lon="135.150082">
 <ele>275</ele>
 <time>2020-03-25T02:54:28Z</time>
</trkpt>
<trkpt lat="35.340852" lon="135.150222">
 <ele>269</ele>
 <time>2020-03-25T02:54:28Z</time>
</trkpt>
<trkpt lat="35.340921" lon="135.150350">
 <ele>268</ele>
 <time>2020-03-25T02:54:28Z</time>
</trkpt>
<trkpt lat="35.340990" lon="135.150533">
 <ele>265</ele>
 <time>2020-03-25T02:54:29Z</time>
</trkpt>
<trkpt lat="35.341076" lon="135.150651">
 <ele>262</ele>
 <time>2020-03-25T02:54:29Z</time>
</trkpt>
<trkpt lat="35.341179" lon="135.150779">
 <ele>267</ele>
 <time>2020-03-25T02:54:29Z</time>
</trkpt>
<trkpt lat="35.341282" lon="135.150897">
 <ele>260</ele>
 <time>2020-03-25T02:54:29Z</time>
</trkpt>
<trkpt lat="35.341428" lon="135.150994">
 <ele>258</ele>
 <time>2020-03-25T02:54:29Z</time>
</trkpt>
<trkpt lat="35.341470" lon="135.151058">
 <ele>259</ele>
 <time>2020-03-25T02:54:29Z</time>
</trkpt>
<trkpt lat="35.341513" lon="135.151123">
 <ele>255</ele>
 <time>2020-03-25T02:54:29Z</time>
</trkpt>
<trkpt lat="35.341582" lon="135.151166">
 <ele>250</ele>
 <time>2020-03-25T02:54:30Z</time>
</trkpt>
<trkpt lat="35.341642" lon="135.151230">
 <ele>249</ele>
 <time>2020-03-25T02:54:30Z</time>
</trkpt>
<trkpt lat="35.341702" lon="135.151284">
 <ele>243</ele>
 <time>2020-03-25T02:54:30Z</time>
</trkpt>
<trkpt lat="35.341762" lon="135.151294">
 <ele>243</ele>
 <time>2020-03-25T02:54:30Z</time>
</trkpt>
<trkpt lat="35.341814" lon="135.151359">
 <ele>240</ele>
 <time>2020-03-25T02:54:30Z</time>
</trkpt>
<trkpt lat="35.341848" lon="135.151455">
 <ele>237</ele>
 <time>2020-03-25T02:54:30Z</time>
</trkpt>
<trkpt lat="35.341882" lon="135.151573">
 <ele>236</ele>
 <time>2020-03-25T02:54:30Z</time>
</trkpt>
<trkpt lat="35.341943" lon="135.151616">
 <ele>232</ele>
 <time>2020-03-25T02:54:31Z</time>
</trkpt>
<trkpt lat="35.342046" lon="135.151724">
 <ele>230</ele>
 <time>2020-03-25T02:54:31Z</time>
</trkpt>
<trkpt lat="35.342106" lon="135.151799">
 <ele>228</ele>
 <time>2020-03-25T02:54:31Z</time>
</trkpt>
<trkpt lat="35.342157" lon="135.151831">
 <ele>229</ele>
 <time>2020-03-25T02:54:31Z</time>
</trkpt>
<trkpt lat="35.342200" lon="135.151938">
 <ele>223</ele>
 <time>2020-03-25T02:54:31Z</time>
</trkpt>
<trkpt lat="35.342226" lon="135.152056">
 <ele>221</ele>
 <time>2020-03-25T02:54:31Z</time>
</trkpt>
<trkpt lat="35.342269" lon="135.152110">
 <ele>214</ele>
 <time>2020-03-25T02:54:32Z</time>
</trkpt>
<trkpt lat="35.342320" lon="135.152206">
 <ele>210</ele>
 <time>2020-03-25T02:54:32Z</time>
</trkpt>
<trkpt lat="35.342380" lon="135.152292">
 <ele>207</ele>
 <time>2020-03-25T02:54:32Z</time>
</trkpt>
<trkpt lat="35.342415" lon="135.152367">
 <ele>206</ele>
 <time>2020-03-25T02:54:32Z</time>
</trkpt>
<trkpt lat="35.342458" lon="135.152475">
 <ele>205</ele>
 <time>2020-03-25T02:54:32Z</time>
</trkpt>
<trkpt lat="35.342552" lon="135.152550">
 <ele>203</ele>
 <time>2020-03-25T02:54:32Z</time>
</trkpt>
<trkpt lat="35.342767" lon="135.152646">
 <ele>199</ele>
 <time>2020-03-25T02:54:32Z</time>
</trkpt>
<trkpt lat="35.342895" lon="135.152689">
 <ele>196</ele>
 <time>2020-03-25T02:54:33Z</time>
</trkpt>
<trkpt lat="35.343067" lon="135.152646">
 <ele>192</ele>
 <time>2020-03-25T02:54:33Z</time>
</trkpt>
<trkpt lat="35.343187" lon="135.152636">
 <ele>191</ele>
 <time>2020-03-25T02:54:33Z</time>
</trkpt>
<trkpt lat="35.343281" lon="135.152636">
 <ele>188</ele>
 <time>2020-03-25T02:54:33Z</time>
</trkpt>
<trkpt lat="35.343324" lon="135.152689">
 <ele>188</ele>
 <time>2020-03-25T02:54:33Z</time>
</trkpt>
<trkpt lat="35.343359" lon="135.152807">
 <ele>191</ele>
 <time>2020-03-25T02:54:33Z</time>
</trkpt>
<trkpt lat="35.343470" lon="135.152775">
 <ele>187</ele>
 <time>2020-03-25T02:54:33Z</time>
</trkpt>
<trkpt lat="35.343556" lon="135.152700">
 <ele>182</ele>
 <time>2020-03-25T02:54:34Z</time>
</trkpt>
<trkpt lat="35.343642" lon="135.152721">
 <ele>180</ele>
 <time>2020-03-25T02:54:34Z</time>
</trkpt>
<trkpt lat="35.343693" lon="135.152764">
 <ele>180</ele>
 <time>2020-03-25T02:54:34Z</time>
</trkpt>
<trkpt lat="35.343771" lon="135.152818">
 <ele>176</ele>
 <time>2020-03-25T02:54:34Z</time>
</trkpt>
<trkpt lat="35.343822" lon="135.152893">
 <ele>178</ele>
 <time>2020-03-25T02:54:34Z</time>
</trkpt>
<trkpt lat="35.343891" lon="135.153000">
 <ele>176</ele>
 <time>2020-03-25T02:54:34Z</time>
</trkpt>
<trkpt lat="35.343977" lon="135.153054">
 <ele>173</ele>
 <time>2020-03-25T02:54:35Z</time>
</trkpt>
<trkpt lat="35.344071" lon="135.153097">
 <ele>171</ele>
 <time>2020-03-25T02:54:35Z</time>
</trkpt>
<trkpt lat="35.344140" lon="135.153097">
 <ele>169</ele>
 <time>2020-03-25T02:54:35Z</time>
</trkpt>
<trkpt lat="35.344140" lon="135.152990">
 <ele>168</ele>
 <time>2020-03-25T02:54:35Z</time>
</trkpt>
<trkpt lat="35.344123" lon="135.152872">
 <ele>168</ele>
 <time>2020-03-25T02:54:35Z</time>
</trkpt>
<trkpt lat="35.344166" lon="135.152839">
 <ele>166</ele>
 <time>2020-03-25T02:54:35Z</time>
</trkpt>
<trkpt lat="35.344277" lon="135.152807">
 <ele>163</ele>
 <time>2020-03-25T02:54:35Z</time>
</trkpt>
<trkpt lat="35.344363" lon="135.152850">
 <ele>161</ele>
 <time>2020-03-25T02:54:36Z</time>
</trkpt>
<trkpt lat="35.344517" lon="135.152990">
 <ele>159</ele>
 <time>2020-03-25T02:54:36Z</time>
</trkpt>
<trkpt lat="35.344629" lon="135.153054">
 <ele>156</ele>
 <time>2020-03-25T02:54:36Z</time>
</trkpt>
<trkpt lat="35.344698" lon="135.153161">
 <ele>154</ele>
 <time>2020-03-25T02:54:36Z</time>
</trkpt>
<trkpt lat="35.344792" lon="135.153236">
 <ele>152</ele>
 <time>2020-03-25T02:54:36Z</time>
</trkpt>
<trkpt lat="35.344887" lon="135.153354">
 <ele>149</ele>
 <time>2020-03-25T02:54:36Z</time>
</trkpt>
<trkpt lat="35.345058" lon="135.153526">
 <ele>146</ele>
 <time>2020-03-25T02:54:37Z</time>
</trkpt>
<trkpt lat="35.345196" lon="135.153698">
 <ele>143</ele>
 <time>2020-03-25T02:54:37Z</time>
</trkpt>
<trkpt lat="35.345402" lon="135.153784">
 <ele>139</ele>
 <time>2020-03-25T02:54:37Z</time>
</trkpt>
<trkpt lat="35.345547" lon="135.153859">
 <ele>138</ele>
 <time>2020-03-25T02:54:37Z</time>
</trkpt>
<trkpt lat="35.345728" lon="135.153966">
 <ele>136</ele>
 <time>2020-03-25T02:54:37Z</time>
</trkpt>
<trkpt lat="35.345813" lon="135.154020">
 <ele>136</ele>
 <time>2020-03-25T02:54:37Z</time>
</trkpt>
</trkseg>
</trk>
</gpx>

